Schedule -- Season 72
Date/Time Away team Status Home team
5/2/2026 1:30:00 PM Monks Tal-Liedna MAS BC
5/5/2026 1:30:00 PM 2 MAS BC 8 `Izbat Sawwan Abu Haybah
5/7/2026 1:30:00 PM MAS BC 37 StormBrook Lightning Bolts C
5/9/2026 1:30:00 PM 6 El Remate Command 7 MAS BC
5/12/2026 1:30:00 PM 7 MAS BC 4 Glorious Saints
5/14/2026 1:30:00 PM MAS BC Bredeweg Femme Fatales C
5/16/2026 1:30:00 PM 7 MAS BC 8 Shadow Buzzerbeaters
5/19/2026 1:30:00 PM 1 Tempest Blazers 7 MAS BC
5/23/2026 1:30:00 PM 7 MAS BC 3 Ilorin Madmen TV
5/26/2026 1:30:00 PM 6 Colos 7 MAS BC
5/30/2026 1:30:00 PM 7 MAS BC 1 Drmtem
6/2/2026 1:30:00 PM 3 Lil cherry 7 MAS BC
6/6/2026 1:30:00 PM 7 MAS BC 2 Net Ninjas2B9 TV
6/9/2026 1:30:00 PM 7 Alahely 7 MAS BC
6/13/2026 1:30:00 PM 7 MAS BC 8 Baseline
6/17/2026 1:30:00 PM Big 8 Great 8
6/20/2026 1:30:00 PM 4 Sharm (El sheik) Wizards 7 MAS BC
6/23/2026 1:30:00 PM 7 MAS BC 5 holo state
6/27/2026 1:30:00 PM 7 MAS BC 5 Monks Tal-Liedna
6/30/2026 1:30:00 PM 2 `Izbat Sawwan Abu Haybah 7 MAS BC
7/4/2026 1:30:00 PM 7 MAS BC 6 El Remate Command
7/7/2026 1:30:00 PM 4 Glorious Saints 7 MAS BC
7/11/2026 1:30:00 PM 8 Shadow Buzzerbeaters 7 MAS BC
7/14/2026 1:30:00 PM 7 MAS BC 1 Tempest Blazers
7/18/2026 1:30:00 PM 3 Ilorin Madmen 7 MAS BC TV
C: Cup TV: Televised
Advertisement